Date String (YYYY-MM-DD hh:mm:ss) UTC,Instrument flags,Ambient pressure (hPa),Sample flow (lpm),Bypass flow (lpm),Sample temperature (°C),Ambient temperature (°C),ASC tube jacket temperature (°C),LED temperature (°C),Box temperature (°C),Sample RH (%),Span deviation,Mass concentration (μg/m³),Mass concentration (μg/m³),Mass concentration (μg/m³)
DateTimeUTC,F1_M11,P_M11,Q1_M11,Q2_M11,T1_M11,T2_M11,T3_M11,T4_M11,T5_M11,U1_M11,ZSPAN_M11,X0_M11,X2_M11,X1_M11
2023-02-27 18:00:00,,0817.2,5.02,0.00,22.0,20.5,00.0,30.9,23.6,08.9,0000.0,0001.43,0000.52,0000.21
2023-02-27 18:01:00,,0817.1,4.98,0.00,22.1,21.9,00.0,30.8,23.9,09.3,0000.0,0001.27,0000.52,0000.21
2023-02-27 18:02:00,,0817.2,5.00,0.00,22.2,22.9,00.0,30.9,24.2,08.9,0000.0,0001.17,0000.51,0000.21
2023-02-27 18:03:00,,0817.2,5.02,0.00,22.3,22.5,00.0,30.9,24.2,09.1,0000.0,0001.14,0000.49,0000.21
2023-02-27 18:04:00,,0817.1,5.00,0.00,22.3,22.0,00.0,31.0,24.1,09.0,0000.0,0001.22,0000.50,0000.21
2023-02-27 18:05:00,,0817.1,5.00,0.00,22.3,21.6,00.0,31.0,24.0,09.0,0000.0,0001.23,0000.49,0000.21
2023-02-27 18:06:00,,0817.1,5.00,0.00,22.3,21.4,00.0,31.0,24.0,09.0,0000.0,0001.21,0000.48,0000.21
2023-02-27 18:07:00,,0817.1,5.02,0.00,22.3,21.1,00.0,31.0,23.9,09.0,0000.0,0001.28,0000.46,0000.21
2023-02-27 18:08:00,,0817.0,5.00,0.00,22.2,21.0,00.0,31.0,23.8,09.0,0000.0,0001.47,0000.40,0000.21
2023-02-27 18:09:00,,0817.0,5.00,0.00,22.2,20.8,00.0,31.0,23.8,09.2,0000.0,0001.77,0000.41,0000.21
2023-02-27 18:10:00,,0817.0,5.00,0.00,22.2,20.6,00.0,31.0,23.8,09.4,0000.0,0001.74,0000.38,0000.20
2023-02-27 18:11:00,,0817.1,5.00,0.00,22.1,20.5,00.0,30.9,23.7,09.0,0000.0,0001.77,0000.38,0000.20
2023-02-27 18:12:00,,0817.0,4.98,0.00,22.1,20.5,00.0,30.9,23.6,09.3,0000.0,0001.92,0000.40,0000.21
2023-02-27 18:13:00,,0817.0,5.00,0.00,22.1,20.4,00.0,30.9,23.6,09.7,0000.0,0002.08,0000.46,0000.21
2023-02-27 18:14:00,,0817.0,5.00,0.00,22.0,20.3,00.0,30.9,23.6,09.5,0000.0,0002.13,0000.48,0000.21
2023-02-27 18:15:00,,0817.0,5.00,0.00,22.0,20.3,00.0,30.9,23.5,09.6,0000.0,0002.06,0000.47,0000.21
2023-02-27 18:16:00,,0817.0,5.01,0.00,22.0,20.3,00.0,30.9,23.5,09.4,0000.0,0002.06,0000.48,0000.20
2023-02-27 18:17:00,,0817.0,4.99,0.00,21.9,20.2,00.0,30.8,23.5,09.6,0000.0,0002.13,0000.48,0000.20
2023-02-27 18:18:00,,0817.0,5.00,0.00,21.9,20.3,00.0,30.8,23.5,09.7,0000.0,0002.09,0000.49,0000.20
2023-02-27 18:19:00,,0816.9,5.03,0.00,22.0,21.7,00.0,30.8,23.8,09.8,0000.0,0001.73,0000.49,0000.20
2023-02-27 18:20:00,,0816.9,4.94,0.00,22.1,22.8,00.0,30.8,24.1,09.7,0000.0,0001.62,0000.48,0000.20
2023-02-27 18:21:00,,0816.9,5.01,0.00,22.2,22.6,00.0,30.9,24.2,09.6,0000.0,0001.62,0000.46,0000.20
2023-02-27 18:22:00,,0816.9,4.99,0.00,22.3,22.1,00.0,30.9,24.1,09.4,0000.0,0001.76,0000.46,0000.21
2023-02-27 18:23:00,,0816.8,5.00,0.00,22.2,21.7,00.0,30.9,24.0,09.5,0000.0,0002.15,0000.42,0000.20
2023-02-27 18:24:00,,0816.8,5.02,0.00,22.2,21.4,00.0,30.9,23.9,09.4,0000.0,0002.04,0000.37,0000.20
2023-02-27 18:25:00,,0816.8,4.98,0.00,22.2,21.2,00.0,30.9,23.9,09.6,0000.0,0001.98,0000.35,0000.20
2023-02-27 18:26:00,,0816.7,5.01,0.00,22.2,21.0,00.0,30.9,23.8,09.6,0000.0,0002.45,0000.37,0000.20
2023-02-27 18:27:00,,0816.8,5.00,0.00,22.2,20.9,00.0,30.9,23.8,09.6,0000.0,0002.38,0000.37,0000.20
2023-02-27 18:28:00,,0816.8,5.00,0.00,22.2,20.7,00.0,30.9,23.8,10.0,0000.0,0002.40,0000.38,0000.20
2023-02-27 18:29:00,,0816.7,5.00,0.00,22.1,20.6,00.0,30.9,23.7,09.7,0000.0,0002.38,0000.37,0000.21
2023-02-27 18:30:00,,0816.7,5.00,0.00,22.1,20.6,00.0,30.9,23.7,09.8,0000.0,0002.36,0000.38,0000.20
2023-02-27 18:31:00,,0816.8,5.00,0.00,22.1,20.5,00.0,30.9,23.6,09.9,0000.0,0002.22,0000.39,0000.20
2023-02-27 18:32:00,,0816.9,5.00,0.00,22.1,20.4,00.0,30.9,23.6,10.1,0000.0,0002.14,0000.43,0000.21
2023-02-27 18:33:00,,0816.8,5.00,0.00,22.0,20.4,00.0,30.9,23.5,10.0,0000.0,0002.21,0000.46,0000.21
2023-02-27 18:34:00,,0816.7,5.00,0.00,22.0,20.3,00.0,30.9,23.5,09.7,0000.0,0001.58,0000.49,0000.21
2023-02-27 18:35:00,,0816.8,5.00,0.00,22.0,20.3,00.0,30.8,23.5,09.8,0000.0,0001.67,0000.50,0000.21
2023-02-27 18:36:00,,0816.9,5.01,0.00,22.0,20.9,00.0,30.8,23.7,10.2,0000.0,0001.66,0000.50,0000.22
2023-02-27 18:37:00,,0816.7,5.04,0.00,22.1,22.3,00.0,30.8,24.1,10.0,0000.0,0001.30,0000.48,0000.22
2023-02-27 18:38:00,,0816.7,5.01,0.00,22.3,23.0,00.0,30.9,24.3,09.9,0000.0,0001.20,0000.48,0000.22
2023-02-27 18:39:00,,0816.7,4.99,0.00,22.3,22.5,00.0,30.9,24.2,09.9,0000.0,0001.21,0000.51,0000.22
2023-02-27 18:40:00,,0816.7,5.00,0.00,22.3,22.0,00.0,30.9,24.1,10.0,0000.0,0001.26,0000.55,0000.22
2023-02-27 18:41:00,,0816.7,4.99,0.00,22.3,21.7,00.0,31.0,24.0,10.0,0000.0,0001.23,0000.53,0000.22
2023-02-27 18:42:00,,0816.7,4.98,0.00,22.3,21.4,00.0,31.0,24.0,09.8,0000.0,0001.26,0000.51,0000.22
2023-02-27 18:43:00,,0816.6,4.99,0.00,22.3,21.2,00.0,31.0,23.9,09.5,0000.0,0001.21,0000.48,0000.21
2023-02-27 18:44:00,,0816.7,5.01,0.00,22.3,21.1,00.0,31.0,23.9,09.8,0000.0,0001.18,0000.46,0000.21
2023-02-27 18:45:00,,0816.6,5.00,0.00,22.2,20.9,00.0,31.0,23.9,10.1,0000.0,0001.22,0000.49,0000.21
2023-02-27 18:46:00,,0816.7,5.01,0.00,22.2,20.8,00.0,31.0,23.9,09.8,0000.0,0001.04,0000.46,0000.21
2023-02-27 18:47:00,,0816.6,4.99,0.00,22.2,20.8,00.0,31.0,23.9,09.8,0000.0,0001.15,0000.48,0000.20
2023-02-27 18:48:00,,0816.6,5.02,0.00,22.2,20.7,00.0,31.0,23.8,10.1,0000.0,0001.32,0000.53,0000.21
2023-02-27 18:49:00,,0816.5,5.01,0.00,22.2,20.7,00.0,31.0,23.8,09.8,0000.0,0001.29,0000.53,0000.21
2023-02-27 18:50:00,,0816.5,5.01,0.00,22.2,20.6,00.0,30.9,23.8,10.1,0000.0,0001.28,0000.49,0000.21
2023-02-27 18:51:00,,0816.4,5.00,0.00,22.1,20.5,00.0,30.9,23.7,09.7,0000.0,0001.21,0000.47,0000.21
2023-02-27 18:52:00,,0816.5,5.01,0.00,22.1,20.5,00.0,30.9,23.7,09.9,0000.0,0001.20,0000.48,0000.21
2023-02-27 18:53:00,,0816.6,5.00,0.00,22.1,20.5,00.0,30.9,23.7,09.9,0000.0,0001.13,0000.48,0000.21
2023-02-27 18:54:00,,0816.5,4.99,0.00,22.1,20.4,00.0,30.9,23.6,10.0,0000.0,0001.13,0000.48,0000.22
2023-02-27 18:55:00,,0816.6,5.00,0.00,22.0,20.4,00.0,30.9,23.6,10.5,0000.0,0001.09,0000.47,0000.22
2023-02-27 18:56:00,,0816.5,4.98,0.00,22.0,20.4,00.0,30.9,23.6,10.3,0000.0,0000.94,0000.41,0000.21
2023-02-27 18:57:00,,0816.5,5.00,0.00,22.0,20.3,00.0,30.8,23.6,10.0,0000.0,0000.99,0000.44,0000.22
2023-02-27 18:58:00,,0816.5,5.01,0.00,22.0,21.2,00.0,30.8,23.8,09.9,0000.0,0000.88,0000.42,0000.23
2023-02-27 18:59:00,,0816.6,4.99,0.00,22.2,22.6,00.0,30.8,24.1,10.3,0000.0,0000.77,0000.39,0000.22
